Date String (YYYY-MM-DD hh:mm:ss) UTC,Instrument flags,Ambient pressure (hPa),Sample flow (lpm),Bypass flow (lpm),Sample temperature (°C),Ambient temperature (°C),ASC tube jacket temperature (°C),LED temperature (°C),Box temperature (°C),Sample RH (%),Span deviation,Mass concentration (μg/m³),Mass concentration (μg/m³),Mass concentration (μg/m³)
DateTimeUTC,F1_M11,P_M11,Q1_M11,Q2_M11,T1_M11,T2_M11,T3_M11,T4_M11,T5_M11,U1_M11,ZSPAN_M11,X0_M11,X2_M11,X1_M11
2022-07-18 13:00:00,,0828.1,4.99,0.00,29.9,28.8,00.0,38.6,31.9,26.6,0000.0,0016.04,0007.78,0006.72
2022-07-18 13:01:00,,0828.2,5.01,0.00,29.9,28.3,00.0,38.6,31.9,26.8,0000.0,0015.37,0007.72,0006.72
2022-07-18 13:02:00,,0828.2,4.99,0.00,29.9,27.5,00.0,38.5,31.7,26.8,0000.0,0014.99,0007.75,0006.72
2022-07-18 13:03:00,,0828.1,5.01,0.00,29.9,27.2,00.0,38.5,31.6,26.6,0000.0,0015.07,0007.79,0006.72
2022-07-18 13:04:00,,0828.2,5.00,0.00,29.8,27.2,00.0,38.5,31.5,26.8,0000.0,0015.17,0007.76,0006.72
2022-07-18 13:05:00,,0828.2,5.00,0.00,29.7,27.3,00.0,38.5,31.4,26.8,0000.0,0014.63,0007.74,0006.72
2022-07-18 13:06:00,,0828.2,4.99,0.00,29.7,27.5,00.0,38.5,31.4,26.4,0000.0,0015.48,0007.74,0006.71
2022-07-18 13:07:00,,0828.1,5.00,0.00,29.6,27.6,00.0,38.5,31.4,26.5,0000.0,0015.98,0007.73,0006.70
2022-07-18 13:08:00,,0828.1,5.00,0.00,29.6,27.8,00.0,38.4,31.4,26.8,0000.0,0016.02,0007.72,0006.69
2022-07-18 13:09:00,,0828.3,5.00,0.00,29.6,28.0,00.0,38.4,31.5,27.0,0000.0,0015.69,0007.73,0006.68
2022-07-18 13:10:00,,0828.2,5.00,0.00,29.6,28.1,00.0,38.4,31.5,27.6,0000.0,0015.40,0007.71,0006.67
2022-07-18 13:11:00,,0828.3,5.01,0.00,29.7,28.2,00.0,38.4,31.5,27.8,0000.0,0015.58,0007.70,0006.66
2022-07-18 13:12:00,,0828.2,4.99,0.00,29.7,28.3,00.0,38.5,31.6,27.6,0000.0,0015.66,0007.72,0006.66
2022-07-18 13:13:00,,0828.1,5.00,0.00,29.7,28.4,00.0,38.5,31.6,27.2,0000.0,0015.84,0007.70,0006.67
2022-07-18 13:14:00,,0828.3,4.99,0.00,29.7,28.5,00.0,38.5,31.7,26.6,0000.0,0015.63,0007.64,0006.66
2022-07-18 13:15:00,,0828.2,5.01,0.00,29.7,28.6,00.0,38.5,31.7,26.0,0000.0,0015.42,0007.63,0006.64
2022-07-18 13:16:00,,0828.2,5.00,0.00,29.8,28.6,00.0,38.5,31.7,26.1,0000.0,0015.25,0007.62,0006.62
2022-07-18 13:17:00,,0828.2,4.99,0.00,29.8,28.7,00.0,38.5,31.8,26.3,0000.0,0014.65,0007.63,0006.63
2022-07-18 13:18:00,,0828.1,5.00,0.00,29.8,28.8,00.0,38.5,31.8,26.3,0000.0,0014.65,0007.66,0006.64
2022-07-18 13:19:00,,0828.3,5.01,0.00,29.8,28.8,00.0,38.6,31.8,26.8,0000.0,0014.87,0007.67,0006.64
2022-07-18 13:20:00,,0828.2,4.99,0.00,29.9,28.8,00.0,38.6,31.9,27.5,0000.0,0015.47,0007.72,0006.65
2022-07-18 13:21:00,,0828.1,5.01,0.00,29.9,28.2,00.0,38.5,31.8,28.3,0000.0,0015.78,0007.73,0006.66
2022-07-18 13:22:00,,0828.1,4.99,0.00,29.9,27.5,00.0,38.5,31.7,28.1,0000.0,0016.45,0007.73,0006.67
2022-07-18 13:23:00,,0828.1,5.01,0.00,29.8,27.3,00.0,38.4,31.6,28.1,0000.0,0016.58,0007.75,0006.67
2022-07-18 13:24:00,,0828.2,5.00,0.00,29.7,27.3,00.0,38.4,31.5,28.3,0000.0,0016.15,0007.69,0006.66
2022-07-18 13:25:00,,0828.3,5.00,0.00,29.7,27.4,00.0,38.4,31.4,29.0,0000.0,0016.44,0007.70,0006.67
2022-07-18 13:26:00,,0828.2,5.00,0.00,29.6,27.6,00.0,38.4,31.4,29.2,0000.0,0016.26,0007.75,0006.68
2022-07-18 13:27:00,,0828.2,4.99,0.00,29.6,27.7,00.0,38.4,31.4,28.9,0000.0,0016.40,0007.78,0006.71
2022-07-18 13:28:00,,0828.2,4.99,0.00,29.6,27.9,00.0,38.4,31.5,29.3,0000.0,0016.17,0007.77,0006.73
2022-07-18 13:29:00,,0828.2,5.00,0.00,29.6,28.0,00.0,38.4,31.5,29.5,0000.0,0015.52,0007.79,0006.75
2022-07-18 13:30:00,,0828.2,5.00,0.00,29.6,28.2,00.0,38.4,31.5,28.4,0000.0,0015.95,0007.81,0006.76
2022-07-18 13:31:00,,0828.3,5.01,0.00,29.7,28.3,00.0,38.4,31.6,28.2,0000.0,0015.55,0007.76,0006.78
2022-07-18 13:32:00,,0828.3,4.99,0.00,29.7,28.4,00.0,38.4,31.6,28.2,0000.0,0014.92,0007.75,0006.79
2022-07-18 13:33:00,,0828.3,5.01,0.00,29.7,28.5,00.0,38.5,31.7,28.1,0000.0,0014.63,0007.77,0006.81
2022-07-18 13:34:00,,0828.3,5.00,0.00,29.7,28.6,00.0,38.5,31.7,28.1,0000.0,0014.34,0007.80,0006.83
2022-07-18 13:35:00,,0828.3,4.99,0.00,29.8,28.6,00.0,38.5,31.7,28.5,0000.0,0014.74,0007.83,0006.85
2022-07-18 13:36:00,,0828.4,5.01,0.00,29.8,28.7,00.0,38.5,31.7,28.2,0000.0,0014.92,0007.89,0006.88
2022-07-18 13:37:00,,0828.4,4.99,0.00,29.8,28.8,00.0,38.5,31.8,27.7,0000.0,0014.85,0007.88,0006.90
2022-07-18 13:38:00,,0828.4,5.00,0.00,29.9,28.9,00.0,38.5,31.8,27.5,0000.0,0016.10,0007.91,0006.93
2022-07-18 13:39:00,,0828.4,5.01,0.00,29.9,28.9,00.0,38.6,31.9,27.4,0000.0,0016.49,0007.91,0006.95
2022-07-18 13:40:00,,0828.4,4.99,0.00,29.9,28.7,00.0,38.6,31.9,27.4,0000.0,0016.83,0007.93,0006.96
2022-07-18 13:41:00,,0828.4,5.01,0.00,29.9,27.9,00.0,38.5,31.8,27.6,0000.0,0016.72,0007.98,0006.99
2022-07-18 13:42:00,,0828.4,4.98,0.00,29.9,27.4,00.0,38.5,31.7,28.2,0000.0,0016.87,0008.07,0007.01
2022-07-18 13:43:00,,0828.4,5.01,0.00,29.8,27.3,00.0,38.5,31.5,28.4,0000.0,0017.00,0008.06,0007.02
2022-07-18 13:44:00,,0828.3,4.99,0.00,29.7,27.3,00.0,38.5,31.4,28.6,0000.0,0017.18,0008.10,0007.02
2022-07-18 13:45:00,,0828.3,5.01,0.00,29.7,27.5,00.0,38.4,31.4,28.7,0000.0,0016.90,0008.11,0007.03
2022-07-18 13:46:00,,0828.3,5.00,0.00,29.6,27.6,00.0,38.4,31.4,29.5,0000.0,0016.61,0008.12,0007.04
2022-07-18 13:47:00,,0828.3,5.00,0.00,29.6,27.8,00.0,38.4,31.4,30.2,0000.0,0016.11,0008.14,0007.05
2022-07-18 13:48:00,,0828.3,4.99,0.00,29.6,27.9,00.0,38.4,31.5,30.7,0000.0,0016.15,0008.17,0007.06
2022-07-18 13:49:00,,0828.5,5.01,0.00,29.6,28.1,00.0,38.4,31.5,31.4,0000.0,0015.49,0008.18,0007.07
2022-07-18 13:50:00,,0828.5,5.01,0.00,29.7,28.2,00.0,38.4,31.6,31.7,0000.0,0016.95,0008.22,0007.08
2022-07-18 13:51:00,,0828.3,4.99,0.00,29.7,28.3,00.0,38.5,31.6,31.9,0000.0,0016.71,0008.23,0007.08
2022-07-18 13:52:00,,0828.3,5.00,0.00,29.7,28.4,00.0,38.5,31.6,32.2,0000.0,0017.15,0008.24,0007.09
2022-07-18 13:53:00,,0828.3,5.01,0.00,29.7,28.5,00.0,38.5,31.7,32.3,0000.0,0017.54,0008.23,0007.11
2022-07-18 13:54:00,,0828.3,4.99,0.00,29.8,28.6,00.0,38.5,31.7,32.3,0000.0,0017.72,0008.31,0007.14
2022-07-18 13:55:00,,0828.3,5.01,0.00,29.8,28.7,00.0,38.5,31.8,32.5,0000.0,0017.97,0008.34,0007.17
2022-07-18 13:56:00,,0828.4,5.00,0.00,29.8,28.8,00.0,38.5,31.7,31.9,0000.0,0017.96,0008.36,0007.19
2022-07-18 13:57:00,,0828.3,4.99,0.00,29.8,28.8,00.0,38.5,31.8,32.2,0000.0,0018.75,0008.41,0007.22
2022-07-18 13:58:00,,0828.2,5.00,0.00,29.9,28.4,00.0,38.5,31.8,32.4,0000.0,0019.42,0008.43,0007.24
2022-07-18 13:59:00,,0828.2,5.01,0.00,29.8,27.6,00.0,38.4,31.7,32.2,0000.0,0020.18,0008.40,0007.26
